Starlink 32875

operational
NORAD ID: 62951 Int'l Des: 2025-029 Owner: SPXS Country: US Constellation: starlink
LEOCIRCULAR

About Starlink 32875

Description loading...

Live Position

Loading 3D Globe...

Upcoming Passes

Altitude History

Altitude vs Time

uPlot chart will show altitude changes over time

Two-Line Element Set

1 62951U 25029D 25259.45983628 -.00007703 00000-0 -24834-3 0 9992
2 62951 53.1585 319.5124 0001166 96.5380 263.5754 15.30186378 34687
Epoch: Sep 16, 2025 • Age: 40 hours

Current Status

Altitude 479.7 km
Velocity 7.63 km/s
Sub-Earth Point 46.89°N, 40.95°E
Launch Date Feb 11, 2025
Age 0.5 years
Type internet

Technical Details

Classification Payload
Mass 730.00 kg
Dry Mass 700.00 kg
Total Mass 730.00 kg
Length 0.30 m
Diameter 4.10 m
Span 29.00 m
Shape Box + pan
Manufacturer SPXS
Bus Type Starlink V2M
Phase Status In Orbit
Owner/State SPXS/US

Large Constellations

Loading constellations...